Theta_e
327 326 326 324 323 323 322 322 322 323 322 322 322 321 322 321 320 319 318 318 317 316 316 315 315 315 315 315 314 315 316 317 317 316 315 315 315 315 314 312 313 311 309 307 306 306 303 299 296 294 294 296
325 326 326 325 324 324 323 322 323 322 322 322 322 322 321 321 320 319 318 317 317 316 316 315 315 315 314 315 315 315 315 315 315 314 313 312 312 312 311 312 311 311 309 307 306 305 302 299 295 293 294 295
323 324 325 324 324 324 324 324 323 322 322 322 322 322 321 321 319 319 319 318 317 316 316 315 314 313 314 315 315 315 315 314 314 313 312 312 312 311 311 311 312 310 308 307 306 304 302 299 295 293 294 295
323 323 323 324 323 323 323 323 323 323 323 322 321 321 320 318 318 317 316 318 315 316 315 315 313 313 314 314 315 315 314 314 313 313 312 312 312 311 311 310 309 307 306 305 304 303 301 299 296 293 294 293
322 322 321 323 323 322 322 322 322 322 322 321 320 319 318 316 317 316 315 315 314 316 314 313 313 313 314 314 315 314 314 314 313 313 313 311 312 311 309 308 306 305 305 305 304 302 301 298 294 294 294 293
322 323 322 321 322 322 321 322 321 321 320 318 319 317 318 317 315 315 314 314 313 313 313 313 312 313 313 314 314 314 313 313 313 313 313 312 311 310 309 307 305 304 304 304 303 301 300 297 293 294 292 291
322 321 323 322 321 321 321 319 321 319 319 318 318 318 317 316 315 315 315 314 314 314 313 312 312 313 313 313 313 313 313 312 312 312 312 312 311 309 308 305 304 303 303 303 303 301 298 294 292 292 291 291
318 320 320 322 321 321 319 318 318 319 317 317 317 317 317 316 315 315 315 314 312 311 313 313 311 312 312 313 313 313 312 312 312 312 311 311 310 309 307 304 302 301 300 300 299 298 296 293 292 291 290 291
314 317 317 318 320 320 319 319 318 317 317 317 317 317 316 316 315 315 315 314 314 312 312 312 311 311 310 310 310 311 308 308 308 309 308 307 308 305 305 303 302 301 300 299 298 296 294 291 291 290 291 290
312 313 314 316 317 318 319 319 318 317 317 317 317 318 316 315 315 314 314 314 312 311 311 311 310 310 309 308 309 309 307 306 306 307 306 306 306 304 304 303 300 300 299 298 297 294 292 290 290 290 290 289
310 310 312 314 315 317 317 318 318 317 316 317 318 318 317 315 314 314 313 313 312 310 310 310 310 309 308 307 307 308 307 306 306 305 305 305 305 303 303 301 299 297 296 295 293 291 291 290 290 290 290 290
308 309 310 312 314 314 316 317 317 317 317 317 317 317 316 315 314 314 313 312 311 310 309 308 309 309 307 306 306 307 307 305 305 305 305 305 303 302 301 299 298 295 294 294 292 291 290 290 289 290 290 289
306 307 309 309 310 312 314 315 315 316 317 316 316 316 317 315 314 313 312 312 311 310 309 308 309 308 307 306 305 306 305 305 305 305 304 304 302 300 299 298 297 294 293 293 292 290 289 289 289 289 289 289
305 306 306 307 308 309 312 313 313 315 314 315 315 314 315 315 314 313 312 312 311 310 309 309 308 307 306 306 305 305 302 303 304 303 303 302 301 298 297 296 294 294 292 291 291 291 289 288 288 289 289 289
302 304 304 306 306 308 309 311 312 313 313 313 313 314 314 314 314 313 312 312 312 311 309 308 308 307 306 305 304 304 301 303 303 302 302 301 299 298 296 295 295 294 292 291 290 290 289 288 288 288 288 288
301 302 303 304 305 306 307 308 309 310 311 311 312 313 313 313 312 313 312 312 311 310 309 308 307 307 305 304 303 303 301 301 301 301 301 301 300 299 298 297 295 294 292 291 290 289 288 288 288 288 288 287
300 300 301 302 303 304 306 306 307 307 308 308 310 311 312 312 312 311 311 310 310 310 309 308 307 305 305 304 303 302 302 301 300 300 300 299 299 298 297 296 294 293 292 290 290 289 288 288 287 288 287 287
298 299 300 301 301 303 303 304 304 305 306 307 307 308 309 310 310 310 310 310 310 309 308 307 307 305 304 304 303 301 301 298 298 298 298 297 297 296 294 293 292 290 290 289 289 289 288 288 287 287 287 287
296 298 299 299 300 300 301 302 303 304 305 305 306 306 306 307 308 309 309 310 309 308 308 306 306 305 304 303 303 300 300 298 297 297 296 296 294 294 292 292 291 290 289 288 288 288 288 287 287 288 286 286
297 296 296 298 300 300 301 300 301 302 303 304 304 305 305 306 306 306 307 308 308 307 307 306 305 305 305 303 301 299 299 298 295 295 295 294 293 291 290 290 289 289 288 288 287 288 287 287 287 287 287 286
296 297 296 295 296 298 300 299 299 300 301 302 302 303 304 305 305 305 305 305 306 306 305 305 305 305 305 303 300 298 297 296 295 294 293 292 292 292 290 289 288 288 288 287 287 288 287 287 287 286 286 286
296 296 296 297 295 296 297 299 299 299 300 299 300 300 301 303 303 304 304 304 304 304 304 304 304 304 304 302 299 297 296 295 295 294 293 291 291 291 290 288 288 287 288 288 288 287 287 286 286 286 286 286
295 295 295 296 296 295 294 296 297 298 298 299 299 298 299 299 300 300 302 303 302 302 302 302 302 302 302 302 298 297 296 295 294 293 292 291 290 291 290 289 289 288 288 289 288 287 286 286 286 286 286 286
293 293 293 293 293 294 295 294 294 296 297 298 297 298 298 297 298 298 299 300 301 301 301 301 301 301 301 300 298 296 295 294 293 292 291 291 290 289 289 290 289 289 288 288 287 287 286 286 286 286 286 286
291 290 291 292 292 292 293 294 295 293 294 296 297 297 297 297 296 297 297 297 298 299 299 300 300 300 300 300 298 296 295 294 294 293 292 291 291 289 287 288 289 288 288 286 285 286 285 285 286 286 286 285
290 290 290 289 290 291 292 293 293 293 293 294 295 296 296 296 297 297 297 296 297 297 297 298 298 298 298 298 298 296 295 294 294 293 292 291 290 290 288 287 288 288 287 285 283 282 282 283 285 285 285 284
290 290 290 290 290 291 291 293 293 294 294 294 294 294 294 295 296 296 295 296 298 297 297 298 297 297 297 297 297 295 294 294 293 292 291 290 289 288 289 288 289 288 287 284 285 285 283 281 280 283 283 284
290 290 291 291 291 291 291 291 293 293 294 294 294 293 294 294 295 295 294 294 295 297 296 297 296 297 296 295 296 295 293 292 292 291 290 290 289 289 286 287 287 288 288 287 285 281 281 282 282 280 280 281
290 290 290 290 290 290 289 290 290 290 291 292 295 294 293 294 294 294 294 294 293 293 294 295 296 296 295 295 295 294 292 291 291 291 291 290 289 289 287 286 286 287 287 287 288 285 283 281 281 281 284 281
290 289 288 287 286 286 286 286 287 287 288 290 290 290 292 293 293 295 294 294 293 292 292 293 294 293 293 293 294 293 291 291 291 291 291 290 290 289 289 288 286 285 287 287 287 288 288 287 283 283 284 281
289 288 288 287 287 286 286 285 287 288 289 289 290 292 291 292 293 294 294 293 294 293 293 293 293 292 292 292 292 292 291 290 290 290 291 291 290 289 289 288 286 285 284 285 286 287 287 288 289 286 285 281
Wind_Speed
12 13 14 16 16 16 17 18 19 18 17 17 17 17 17 17 16 16 16 16 16 16 15 16 14 14 14 14 15 14 13 14 14 14 13 14 14 14 12 8 12 13 10 6 4 5 5 3 1 2 6 2
10 11 12 14 14 13 15 17 18 18 18 18 17 17 16 15 12 15 16 16 17 16 16 16 15 15 15 15 15 15 14 13 14 12 12 12 12 10 9 10 9 11 11 8 6 7 3 2 1 1 6 3
12 10 11 12 12 12 12 14 16 18 18 18 17 16 15 15 14 14 16 17 17 17 16 16 16 15 15 16 15 15 15 14 14 12 12 12 12 12 13 10 14 12 10 10 11 8 6 5 3 3 5 1
12 13 11 11 11 11 11 12 13 15 16 16 12 14 14 12 13 12 10 11 14 16 16 17 15 15 16 16 16 15 13 14 12 14 15 13 13 13 12 12 9 8 9 10 8 7 7 6 5 5 4 1
10 12 14 10 11 11 10 11 12 12 13 13 13 7 11 11 11 11 12 12 14 16 14 11 12 16 17 17 16 15 15 15 15 16 14 15 14 14 13 9 8 6 8 10 9 8 8 8 5 5 1 1
6 6 13 14 13 12 12 10 11 11 13 12 13 11 7 11 11 12 13 14 15 13 14 11 13 13 17 15 16 16 15 16 16 16 15 15 15 13 11 10 5 5 10 11 10 9 10 7 6 2 2 2
6 8 8 12 12 11 13 14 12 14 14 15 14 13 12 10 13 14 13 13 13 12 14 13 14 13 17 18 17 17 17 16 16 17 16 16 16 14 14 9 6 5 3 4 10 8 8 6 5 3 3 3
7 7 8 8 10 10 10 12 13 14 14 14 16 14 13 13 14 14 12 12 14 11 12 11 15 14 15 14 13 15 13 14 15 16 16 16 16 13 7 7 8 8 8 7 7 6 7 6 5 4 4 4
8 7 8 8 9 10 9 10 11 13 14 14 15 15 13 14 13 12 12 12 11 12 11 11 12 12 12 11 11 10 10 11 11 12 9 8 11 8 10 10 9 7 8 7 7 8 7 7 5 5 4 4
9 8 8 8 9 10 10 10 11 11 12 13 15 13 14 13 14 13 12 11 12 13 12 12 12 12 12 11 11 12 9 9 10 10 9 9 9 8 9 10 9 9 8 8 8 8 7 6 6 5 5 4
8 8 8 8 9 9 10 10 11 11 11 12 13 14 14 13 13 13 12 12 12 14 12 12 12 12 12 12 11 12 11 10 9 10 11 11 10 9 10 10 10 9 9 7 8 7 6 6 6 5 4 3
7 7 9 9 9 9 9 10 11 10 11 11 12 14 15 15 14 14 13 13 13 15 11 12 12 12 12 11 11 12 12 10 10 10 8 8 9 11 10 11 10 9 9 8 7 7 6 6 5 5 4 4
6 6 7 8 9 9 9 10 10 11 11 12 13 13 15 15 15 14 13 14 14 13 12 11 11 11 12 12 11 11 11 11 10 11 10 10 9 9 9 9 10 9 9 8 7 7 7 7 6 5 5 5
6 6 7 7 8 9 9 10 12 13 12 12 12 11 13 16 16 14 14 14 13 12 12 11 10 11 11 12 11 12 12 11 11 11 10 10 10 10 10 10 9 9 8 8 8 7 7 7 7 6 5 5
8 7 7 7 7 7 9 10 11 12 13 12 12 12 13 15 16 14 12 11 11 10 11 11 11 11 10 10 11 12 11 11 11 11 11 11 11 10 10 9 9 9 8 8 8 8 8 7 6 7 6 6
9 8 8 8 7 7 8 9 10 12 12 13 14 13 12 13 15 13 11 11 10 10 10 10 11 10 10 10 10 10 11 11 11 10 10 10 10 10 9 9 9 9 8 8 8 8 9 8 8 7 6 7
9 8 8 7 7 7 7 8 9 10 11 13 13 14 13 14 14 15 12 11 11 11 10 10 10 10 10 10 10 9 10 10 10 10 10 10 10 10 10 9 9 8 9 9 9 9 9 8 8 7 7 6
10 10 8 7 7 7 7 7 8 9 10 11 11 14 16 13 14 14 12 11 11 11 10 11 11 11 10 10 10 9 9 10 10 11 11 11 11 11 11 11 10 10 10 9 9 9 9 8 8 7 7 7
12 11 10 8 7 7 7 7 8 8 9 10 11 13 13 15 14 14 12 12 11 11 11 11 11 11 11 10 10 9 10 10 10 10 11 11 12 11 11 11 11 11 11 11 11 10 10 9 9 8 8 8
10 11 10 10 9 6 7 6 6 7 8 9 10 11 12 14 15 15 14 13 12 11 11 11 11 11 11 11 10 9 10 10 11 11 10 11 11 11 12 11 12 10 11 11 11 10 10 9 9 9 8 9
10 8 10 10 11 10 7 6 6 5 6 7 8 9 12 13 14 15 14 14 15 12 12 11 12 11 11 12 11 11 11 11 10 11 9 11 12 11 11 12 13 11 10 10 10 10 10 9 10 9 9 9
9 9 7 7 8 10 10 9 6 6 5 6 6 7 9 11 13 14 14 14 15 15 14 12 12 12 12 11 11 11 11 11 11 11 11 12 12 12 11 11 12 12 11 9 9 10 10 10 9 8 8 8
9 10 8 6 7 7 8 9 9 8 6 6 5 6 7 9 9 11 13 14 14 15 15 14 13 12 13 11 11 12 12 12 13 13 12 12 12 12 12 11 12 11 10 9 8 8 10 9 9 8 8 8
9 8 8 8 8 7 6 7 8 9 9 6 6 6 6 7 8 9 10 12 13 15 15 15 15 14 11 11 11 12 14 13 13 15 15 15 14 14 12 11 10 11 10 9 9 9 8 9 9 10 9 9
9 10 10 9 9 9 8 7 7 7 9 8 8 9 8 8 7 8 9 10 11 12 13 14 14 15 13 11 11 12 13 12 13 13 13 12 11 14 14 12 11 12 11 10 8 8 8 8 9 9 9 10
10 9 9 10 10 10 9 8 7 7 7 8 8 9 10 9 8 8 8 8 9 11 12 12 14 12 12 15 13 11 11 11 11 12 12 12 11 11 14 11 13 12 12 11 11 10 8 8 8 9 10 10
10 11 11 11 11 11 10 9 9 8 8 8 8 8 9 8 7 10 9 8 8 8 9 11 12 11 10 11 12 12 13 13 14 13 15 15 13 11 10 10 10 14 15 10 10 9 7 9 8 8 10 10
11 13 14 12 12 12 12 11 10 11 10 9 8 9 9 8 7 7 7 9 10 8 9 10 11 11 10 11 12 13 13 11 13 13 13 14 14 12 12 12 11 13 14 10 13 10 12 7 8 8 12 11
14 14 13 11 11 10 11 10 9 9 9 7 8 8 6 7 8 8 7 7 8 9 8 9 8 9 9 9 12 11 10 11 13 13 13 14 14 15 13 12 10 12 14 15 12 9 8 6 9 11 5 11
14 13 14 14 13 12 10 11 9 9 9 8 9 10 11 8 7 7 7 7 7 8 9 9 8 8 8 8 7 8 8 11 11 12 14 15 14 16 15 12 11 10 12 14 14 13 10 7 4 5 7 10
13 14 14 14 14 14 13 12 10 10 10 10 10 10 11 11 10 8 7 7 7 7 8 8 8 8 8 8 7 7 8 9 10 10 12 11 13 14 13 13 13 13 12 11 13 13 13 10 6 1 7 7
Wind_Direction
211 206 203 205 203 198 203 206 205 211 208 206 209 203 200 202 195 199 197 201 201 200 196 197 195 204 199 199 199 202 193 189 186 193 196 201 196 202 201 171 147 132 138 162 197 168 106 104 82 320 303 309
216 212 207 207 209 202 203 208 208 209 211 205 207 207 204 202 203 188 197 201 199 204 195 197 196 200 197 198 198 199 201 196 192 189 198 203 203 208 212 165 159 153 137 166 181 139 146 173 167 304 293 302
214 217 214 214 210 207 204 211 213 211 212 210 203 202 199 201 191 197 196 193 199 205 195 200 193 200 202 197 198 196 201 195 197 191 199 198 202 204 200 181 154 147 156 187 191 171 173 184 189 241 253 234
211 204 214 218 212 208 208 212 219 216 216 219 221 197 192 201 176 177 190 188 200 199 208 194 192 194 207 196 199 199 194 198 193 195 197 198 196 204 200 198 205 152 165 204 188 167 180 188 204 232 230 102
214 200 194 209 213 208 208 212 219 222 224 220 229 219 198 176 176 183 195 197 204 200 208 191 177 187 205 197 198 201 196 194 195 198 197 198 200 199 198 171 141 138 202 208 203 182 177 191 225 236 276 255
229 219 180 209 212 208 206 208 211 216 220 219 219 217 195 193 193 206 207 203 203 199 201 186 176 177 202 201 196 193 200 198 197 195 195 199 197 197 186 161 145 161 206 203 203 195 180 191 236 179 221 243
236 235 216 214 213 212 210 211 206 218 217 219 217 214 214 204 212 211 207 204 196 200 192 191 169 177 197 210 193 199 194 196 199 201 198 195 200 196 184 183 162 163 145 181 204 169 180 222 229 190 200 215
241 235 235 221 216 212 208 210 209 215 220 219 217 217 210 212 214 209 212 197 181 196 185 183 172 176 195 205 213 194 196 189 195 204 202 200 199 194 173 161 176 188 187 193 195 176 202 221 207 187 197 213
263 252 242 239 230 221 212 206 208 210 213 218 222 217 213 215 213 210 212 203 190 194 191 186 179 179 190 196 202 219 199 193 196 195 199 204 195 184 178 173 186 185 180 180 175 192 207 206 183 196 197 204
271 272 255 245 242 236 228 217 212 210 208 214 217 222 220 209 214 215 212 208 201 199 192 184 183 184 189 192 196 193 202 202 195 188 192 199 197 172 171 186 168 185 181 178 183 194 199 196 181 195 191 202
270 264 265 255 252 248 239 232 223 219 212 212 213 216 222 221 210 213 213 207 201 201 192 187 182 183 186 189 191 190 193 200 201 200 195 192 191 163 176 170 175 180 186 186 186 195 189 192 187 195 184 191
279 270 262 263 264 257 249 243 236 229 224 218 216 216 219 220 218 213 207 208 202 204 197 193 186 183 185 187 190 190 192 192 196 194 192 166 166 177 175 175 177 178 184 188 188 191 184 191 191 190 187 182
295 287 278 267 258 255 253 248 245 241 239 232 228 220 222 220 221 223 218 213 207 201 198 196 187 186 186 186 187 187 190 189 191 192 190 184 176 174 176 176 177 175 180 182 187 192 189 189 190 189 186 181
317 301 290 280 269 263 259 253 250 251 244 240 239 234 225 222 223 219 215 216 208 198 196 196 190 189 188 187 184 185 189 187 190 188 190 182 180 176 175 175 177 176 180 183 188 193 192 188 192 184 187 183
328 316 302 294 288 275 263 259 255 249 248 245 241 237 229 227 225 224 218 213 207 203 198 197 196 196 191 187 187 187 189 185 187 188 189 185 179 178 176 179 178 183 181 183 191 188 192 186 189 187 185 183
355 339 322 312 299 288 280 275 264 255 252 250 245 244 240 232 230 223 221 217 212 210 203 200 200 195 193 193 191 188 187 185 186 188 187 183 181 178 178 181 181 184 189 185 191 184 190 186 189 186 184 184
358 356 341 325 307 295 292 281 270 262 256 254 253 251 248 243 238 232 223 217 217 211 209 204 200 197 197 196 192 189 188 184 183 185 184 184 181 180 179 184 186 179 195 186 189 185 188 189 189 185 184 185
348 347 354 345 328 310 297 284 275 265 262 259 258 251 247 247 243 238 229 225 221 215 213 208 203 199 197 196 192 187 185 187 185 187 188 183 181 184 184 185 187 181 191 192 186 187 186 189 186 185 187 185
350 342 340 341 345 332 315 298 287 284 273 263 257 252 247 243 243 237 227 227 227 223 218 214 209 201 199 190 188 184 188 188 190 190 187 183 182 185 187 188 189 186 190 192 190 187 182 188 183 186 188 185
342 343 340 332 333 331 330 310 294 283 276 277 268 261 256 248 247 245 238 227 224 227 223 220 217 207 200 186 186 183 185 190 192 190 188 185 182 180 188 189 191 190 192 195 192 185 184 185 184 186 187 187
339 335 336 337 332 327 322 317 314 297 289 279 277 271 260 255 249 245 239 242 238 232 227 224 220 215 202 189 185 182 185 190 192 190 188 188 190 187 185 191 191 189 192 192 192 187 187 185 185 188 187 186
334 329 325 331 335 330 325 323 318 317 300 282 274 274 278 277 266 257 251 242 242 242 238 234 228 222 206 193 186 184 189 190 191 193 189 190 191 192 188 191 191 191 188 188 189 189 190 188 187 189 188 185
329 325 324 321 324 328 328 324 323 323 307 302 290 279 273 273 276 277 264 250 245 243 241 238 235 229 218 200 191 189 191 190 193 195 193 192 190 195 197 192 192 188 180 182 183 188 189 187 187 188 190 186
331 325 324 324 324 316 317 319 324 315 305 301 299 298 290 280 272 266 267 266 250 245 242 239 236 234 228 213 201 197 197 192 192 194 193 197 191 190 195 199 189 183 176 177 179 184 187 190 190 193 191 192
331 330 324 322 318 314 312 308 303 304 306 313 318 321 312 297 282 278 273 262 263 252 248 245 239 236 230 223 213 211 208 198 195 195 195 193 194 190 188 191 189 186 174 171 178 184 192 194 198 199 198 197
325 323 324 317 311 309 303 299 296 293 297 310 311 314 313 309 299 280 264 270 260 255 247 242 240 236 233 232 226 225 219 209 201 198 199 192 193 195 189 189 187 182 169 186 183 173 187 205 203 202 203 204
318 319 318 313 308 304 301 296 290 278 270 270 274 289 293 294 304 308 299 274 257 257 255 251 241 236 235 236 231 228 225 218 213 208 200 192 191 186 197 199 187 187 185 178 179 179 174 203 195 200 208 210
311 313 310 310 306 305 301 300 296 289 270 231 253 255 256 267 275 270 277 291 291 262 251 249 250 240 228 229 232 233 229 219 214 206 200 198 199 188 187 197 195 193 192 186 164 188 203 194 191 218 211 195
309 305 306 310 305 302 300 298 297 294 291 263 220 230 238 247 241 247 255 260 266 277 275 260 258 257 247 231 226 225 227 227 218 215 211 205 203 201 195 191 190 192 195 200 193 174 168 200 214 220 198 168
302 303 307 309 308 309 303 298 294 292 291 296 303 297 288 260 252 230 223 224 238 251 256 261 255 255 262 245 237 226 217 225 224 219 216 211 207 206 203 193 186 189 198 205 206 211 209 188 198 195 185 150
303 305 302 301 307 300 296 292 285 286 290 293 291 291 290 299 289 258 219 239 233 226 247 256 255 256 251 257 246 227 226 224 221 221 219 214 212 210 205 201 205 191 185 195 216 219 221 223 216 186 190 194